| time (UTC) | temp F | wind direction | speed MPH | gust MPH | rain 1hr in | rain 24hr in | rain mn in | humidity % | barometer mb |
| 20260508013643 | 83 | 287 | 1.0 | 9.0 | 0.00 | 0.00 | 0.00 | 15 | 1014.1 |
| 20260508012833 | 84 | 315 | 1.0 | 4.0 | 0.00 | 0.00 | 0.00 | 16 | 1014.0 |
| 20260508010640 | 84 | 197 | 1.0 | 7.0 | 0.00 | 0.00 | 0.00 | 15 | 1014.0 |
| 20260508005141 | 85 | 247 | 1.0 | 11.0 | 0.00 | 0.00 | 0.00 | 15 | 1014.0 |
| 20260508004407 | 85 | 282 | 1.0 | 13.0 | 0.00 | 0.00 | 0.00 | 13 | 1014.1 |
| 20260508002140 | 85 | 291 | 2.0 | 13.0 | 0.00 | 0.00 | 0.00 | 14 | 1014.0 |
| 20260508000640 | 85 | 295 | 1.0 | 6.0 | 0.00 | 0.00 | 0.00 | 19 | 1014.0 |
| 20260507235140 | 85 | 285 | 0.0 | 5.0 | 0.00 | 0.00 | 0.00 | 18 | 1014.1 |
| 20260507233641 | 85 | 269 | 0.0 | 3.0 | 0.00 | 0.00 | 0.00 | 19 | 1014.1 |
| 20260507232142 | 85 | 266 | 0.0 | 2.0 | 0.00 | 0.00 | 0.00 | 21 | 1014.1 |
| 20260507232048 | 84 | 243 | 0.0 | 2.0 | 0.00 | 0.00 | 0.00 | 22 | 1014.3 |
| 20260507225141 | 84 | 156 | 0.0 | 4.0 | 0.00 | 0.00 | 0.00 | 19 | 1014.5 |
| 20260507223642 | 84 | 330 | 0.0 | 2.0 | 0.00 | 0.00 | 0.00 | 21 | 1014.6 |
| 20260507222142 | 83 | 50 | 0.0 | 3.0 | 0.00 | 0.00 | 0.00 | 20 | 1014.7 |
| 20260507220640 | 83 | 359 | 0.0 | 1.0 | 0.00 | 0.00 | 0.00 | 20 | 1015.0 |
| 20260507215140 | 83 | 246 | 0.0 | 3.0 | 0.00 | 0.00 | 0.00 | 19 | 1015.2 |
| 20260507214336 | 82 | 332 | 0.0 | 1.0 | 0.00 | 0.00 | 0.00 | 19 | 1015.5 |
| 20260507212140 | 81 | 354 | 0.0 | 0.0 | 0.00 | 0.00 | 0.00 | 21 | 1015.6 |
| 20260507210640 | 81 | 87 | 0.0 | 4.0 | 0.00 | 0.00 | 0.00 | 22 | 1015.7 |
| 20260507205139 | 81 | 265 | 0.0 | 1.0 | 0.00 | 0.00 | 0.00 | 23 | 1015.9 |
| 20260507204339 | 80 | 177 | 0.0 | 2.0 | 0.00 | 0.00 | 0.00 | 24 | 1016.0 |
| 20260507202829 | 79 | 285 | 0.0 | 1.0 | 0.00 | 0.00 | 0.00 | 25 | 1016.2 |
| 20260507200640 | 77 | 289 | 0.0 | 2.0 | 0.00 | 0.00 | 0.00 | 29 | 1016.3 |
| 20260507195140 | 76 | 288 | 0.0 | 1.0 | 0.00 | 0.00 | 0.00 | 31 | 1016.6 |
| 20260507194337 | 75 | 315 | 0.0 | 0.0 | 0.00 | 0.00 | 0.00 | 30 | 1016.8 |
| 20260507192136 | 74 | 359 | 0.0 | 1.0 | 0.00 | 0.00 | 0.00 | 37 | 1017.0 |
| 20260507190637 | 73 | 216 | 0.0 | 0.0 | 0.00 | 0.00 | 0.00 | 40 | 1017.3 |
| 20260507185135 | 72 | 247 | 0.0 | 1.0 | 0.00 | 0.00 | 0.00 | 43 | 1017.6 |
| 20260507183634 | 71 | 26 | 0.0 | 1.0 | 0.00 | 0.00 | 0.00 | 46 | 1017.8 |
| 20260507182133 | 69 | 168 | 0.0 | 2.0 | 0.00 | 0.00 | 0.00 | 50 | 1018.0 |
| 20260507180633 | 69 | 266 | 0.0 | 1.0 | 0.00 | 0.00 | 0.00 | 51 | 1018.2 |
| 20260507175818 | 67 | 25 | 0.0 | 1.0 | 0.00 | 0.00 | 0.00 | 55 | 1018.3 |
| 20260507173630 | 66 | 354 | 0.0 | 1.0 | 0.00 | 0.00 | 0.00 | 57 | 1018.6 |
| 20260507172130 | 64 | 25 | 0.0 | 1.0 | 0.00 | 0.00 | 0.00 | 60 | 1018.6 |
| 20260507170630 | 64 | 37 | 0.0 | 1.0 | 0.00 | 0.00 | 0.00 | 61 | 1018.8 |
| 20260507165846 | 62 | 241 | 0.0 | 0.0 | 0.00 | 0.00 | 0.00 | 64 | 1018.8 |
| 20260507163628 | 61 | 285 | 0.0 | 2.0 | 0.00 | 0.00 | 0.00 | 66 | 1019.0 |
| 20260507162128 | 60 | 273 | 0.0 | 1.0 | 0.00 | 0.00 | 0.00 | 66 | 1019.2 |
| 20260507161319 | 60 | 293 | 0.0 | 0.0 | 0.00 | 0.00 | 0.00 | 68 | 1019.3 |
| 20260507155820 | 59 | 354 | 0.0 | 0.0 | 0.00 | 0.00 | 0.00 | 69 | 1019.4 |
| 20260507153626 | 58 | 54 | 0.0 | 0.0 | 0.00 | 0.00 | 0.00 | 70 | 1019.5 |
| 20260507152822 | 57 | 87 | 0.0 | 0.0 | 0.00 | 0.00 | 0.00 | 72 | 1019.5 |
| 20260507150622 | 56 | 87 | 0.0 | 0.0 | 0.00 | 0.00 | 0.00 | 73 | 1019.6 |
| 20260507145121 | 55 | 106 | 0.0 | 0.0 | 0.00 | 0.00 | 0.00 | 76 | 1019.6 |
| 20260507143622 | 53 | 106 | 0.0 | 0.0 | 0.00 | 0.00 | 0.00 | 80 | 1019.6 |
| 20260507142818 | 52 | 106 | 0.0 | 0.0 | 0.00 | 0.00 | 0.00 | 82 | 1019.5 |
| 20260507140621 | 51 | 106 | 0.0 | 0.0 | 0.00 | 0.00 | 0.00 | 83 | 1019.4 |
| 20260507135121 | 51 | 106 | 0.0 | 0.0 | 0.00 | 0.00 | 0.00 | 84 | 1019.3 |
| 20260507133621 | 50 | 106 | 0.0 | 0.0 | 0.00 | 0.00 | 0.00 | 84 | 1019.2 |
| 20260507132120 | 50 | 106 | 0.0 | 0.0 | 0.00 | 0.00 | 0.00 | 84 | 1019.1 |
| 20260507131314 | 50 | 106 | 0.0 | 0.0 | 0.00 | 0.00 | 0.00 | 83 | 1019.1 |
| 20260507125115 | 51 | 106 | 0.0 | 0.0 | 0.00 | 0.00 | 0.00 | 83 | 1019.0 |
| 20260507123615 | 51 | 106 | 0.0 | 0.0 | 0.00 | 0.00 | 0.00 | 83 | 1019.0 |
| 20260507122115 | 51 | 106 | 0.0 | 0.0 | 0.00 | 0.00 | 0.00 | 83 | 1018.9 |
| 20260507120615 | 51 | 80 | 0.0 | 0.0 | 0.00 | 0.00 | 0.00 | 83 | 1019.0 |
| 20260507120507 | 52 | 154 | 0.0 | 0.0 | 0.00 | 0.00 | 0.00 | 83 | 1019.0 |
| 20260507113615 | 52 | 154 | 0.0 | 0.0 | 0.00 | 0.00 | 0.00 | 83 | 1019.2 |
| 20260507112115 | 53 | 154 | 0.0 | 0.0 | 0.00 | 0.00 | 0.00 | 82 | 1019.2 |
| 20260507110615 | 53 | 154 | 0.0 | 0.0 | 0.00 | 0.00 | 0.00 | 82 | 1019.3 |
| 20260507105113 | 54 | 154 | 0.0 | 0.0 | 0.00 | 0.00 | 0.00 | 82 | 1019.2 |
| 20260507103611 | 54 | 154 | 0.0 | 0.0 | 0.00 | 0.00 | 0.00 | 81 | 1019.2 |
| 20260507102109 | 54 | 154 | 0.0 | 0.0 | 0.00 | 0.00 | 0.00 | 80 | 1019.1 |
| 20260507100607 | 55 | 154 | 0.0 | 0.0 | 0.00 | 0.00 | 0.00 | 79 | 1019.1 |
| 20260507095105 | 56 | 154 | 0.0 | 0.0 | 0.00 | 0.00 | 0.00 | 78 | 1019.2 |
| 20260507093603 | 56 | 154 | 0.0 | 0.0 | 0.00 | 0.00 | 0.00 | 78 | 1019.3 |
| 20260507092104 | 57 | 154 | 0.0 | 0.0 | 0.00 | 0.00 | 0.00 | 77 | 1019.2 |
| 20260507090601 | 57 | 154 | 0.0 | 0.0 | 0.00 | 0.00 | 0.00 | 75 | 1019.2 |
| 20260507085059 | 58 | 154 | 0.0 | 0.0 | 0.00 | 0.00 | 0.00 | 74 | 1019.2 |
| 20260507083557 | 58 | 154 | 0.0 | 0.0 | 0.00 | 0.00 | 0.00 | 74 | 1019.2 |
| 20260507082055 | 59 | 154 | 0.0 | 0.0 | 0.00 | 0.00 | 0.00 | 73 | 1019.2 |
| 20260507081252 | 59 | 154 | 0.0 | 1.0 | 0.00 | 0.00 | 0.00 | 73 | 1019.2 |
| 20260507075050 | 60 | 154 | 0.0 | 0.0 | 0.00 | 0.00 | 0.00 | 71 | 1019.2 |
| 20260507073545 | 61 | 154 | 0.0 | 0.0 | 0.00 | 0.00 | 0.00 | 69 | 1019.3 |
| 20260507072044 | 62 | 268 | 0.0 | 0.0 | 0.00 | 0.00 | 0.00 | 67 | 1019.4 |
| 20260507070542 | 64 | 275 | 0.0 | 0.0 | 0.00 | 0.00 | 0.00 | 63 | 1019.3 |
| 20260507065039 | 64 | 276 | 0.0 | 4.0 | 0.00 | 0.00 | 0.00 | 61 | 1019.2 |
| 20260507063539 | 63 | 278 | 0.0 | 0.0 | 0.00 | 0.00 | 0.00 | 65 | 1019.2 |
| 20260507062039 | 63 | 219 | 0.0 | 0.0 | 0.00 | 0.00 | 0.00 | 65 | 1019.2 |
| 20260507061235 | 64 | 303 | 0.0 | 0.0 | 0.00 | 0.00 | 0.00 | 63 | 1019.1 |
| 20260507055039 | 65 | 208 | 0.0 | 0.0 | 0.00 | 0.00 | 0.00 | 61 | 1019.1 |
| 20260507053538 | 66 | 208 | 0.0 | 0.0 | 0.00 | 0.00 | 0.00 | 59 | 1019.0 |
| 20260507052037 | 67 | 21 | 0.0 | 0.0 | 0.00 | 0.00 | 0.00 | 56 | 1019.0 |
| 20260507050537 | 68 | 20 | 0.0 | 0.0 | 0.00 | 0.00 | 0.00 | 54 | 1019.0 |
| 20260507045037 | 68 | 283 | 0.0 | 0.0 | 0.00 | 0.00 | 0.00 | 53 | 1019.0 |
| 20260507044237 | 69 | 283 | 0.0 | 0.0 | 0.00 | 0.00 | 0.00 | 51 | 1018.9 |
| 20260507042036 | 70 | 285 | 0.0 | 0.0 | 0.00 | 0.00 | 0.00 | 50 | 1018.6 |
| 20260507040537 | 71 | 285 | 0.0 | 1.0 | 0.00 | 0.00 | 0.00 | 48 | 1018.4 |
| 20260507035035 | 72 | 275 | 0.0 | 0.0 | 0.00 | 0.00 | 0.00 | 47 | 1018.2 |
| 20260507033535 | 73 | 320 | 0.0 | 2.0 | 0.00 | 0.00 | 0.00 | 45 | 1018.1 |
| 20260507032733 | 74 | 283 | 0.0 | 2.0 | 0.00 | 0.00 | 0.00 | 44 | 1017.9 |
| 20260507031230 | 75 | 259 | 0.0 | 8.0 | 0.00 | 0.00 | 0.00 | 42 | 1017.8 |
| 20260507025735 | 76 | 264 | 0.0 | 5.0 | 0.00 | 0.00 | 0.00 | 39 | 1017.7 |
| 20260507023535 | 76 | 279 | 0.0 | 9.0 | 0.00 | 0.00 | 0.00 | 37 | 1017.5 |
| 20260507022739 | 77 | 284 | 0.0 | 10.0 | 0.00 | 0.00 | 0.00 | 37 | 1017.3 |
| 20260507020531 | 78 | 349 | 0.0 | 6.0 | 0.00 | 0.00 | 0.00 | 35 | 1017.2 |
| 20260507015031 | 79 | 328 | 1.0 | 4.0 | 0.00 | 0.00 | 0.00 | 33 | 1017.1 |